Flag for Sudan Weather past 2 weeks in Khartoum, Sudan

Now
91 °F

Clear.


Feels Like: 87 °F
Forecast: 84 / 111 °F
Wind: 10 mph from North

Location: Khartoum Airport

Current Time: May 25, 2015 at 4:25:14 AM

Latest Report: May 25, 2015 at 4:00 AM


Visibility: 10 mi

Pressure: 29.74 "Hg

Humidity: 12%

Dew point: 32 °F

Location of KhartoumLocation

Historic Weather in Khartoum — Graph

°F

Khartoum temperature yesterday

Maximum temperature yesterday: 109 °F (at 4:00 PM)
Minimum temperature yesterday: 84 °F (at 7:00 AM)
Average temperature yesterday: 97 °F

Past Weeks' High & Low Weather Summary

 TemperatureHumidityPressure
High113 °F (May 18, 5:00 PM)41% (May 21, 8:00 AM)29.95 "Hg (May 21, 8:00 AM)
Low82 °F (May 16, 8:00 AM)3% (May 12, 3:00 PM)29.68 "Hg (May 17, 4:00 PM)
Average98 °F9%29.80 "Hg
* Reported May 10 3:00 AM — May 25 3:00 AM, Khartoum, Weather by CustomWeather, © 2015

Note: Actual official high and low records may vary slightly from our data, if they occured in-between our weather recording intervals... More about our weather records

Advertising

Khartoum weather history for previous 24 hours

 ConditionsComfort  
Time TempWeatherWind HumidityBarometerVisibility
3:00 AM
Mon, May 25
95 °FClear.6 mph10%29.74 "Hg10 mi
2:30 AMN/AClear.6 mphN/A29.74 "Hg10 mi
2:00 AM95 °FClear.8 mph10%29.74 "Hg10 mi
1:30 AMN/AClear.8 mphN/A29.74 "Hg10 mi
1:00 AM97 °FClear.7 mph12%29.74 "Hg10 mi
12:00 AM97 °FClear.6 mph12%29.77 "Hg10 mi
11:00 PM
Sun, May 24
100 °FClear.6 mph11%29.77 "Hg10 mi
10:30 PMN/AClear.6 mphN/A29.77 "Hg10 mi
10:00 PM100 °FClear.5 mph11%29.77 "Hg10 mi
9:30 PMN/AClear.6 mphN/A29.74 "Hg10 mi
9:00 PM102 °FClear.3 mph12%29.74 "Hg10 mi
8:30 PMN/AClear.3 mphN/A29.74 "Hg10 mi
8:00 PMN/AClear.No windN/AN/A10 mi
7:30 PMN/AClear.No windN/A29.71 "Hg10 mi
7:00 PM104 °FSunny.No wind11%29.71 "Hg10 mi
6:30 PMN/ASunny.No windN/A29.71 "Hg10 mi
6:00 PM106 °FSunny.No wind9%29.71 "Hg10 mi
5:30 PMN/ASunny.6 mphN/A29.71 "Hg10 mi
5:00 PM108 °FSunny.6 mph8%29.71 "Hg10 mi
4:30 PMN/ASunny.6 mphN/A29.74 "Hg10 mi
4:00 PM109 °FSunny.6 mph7%29.74 "Hg10 mi
3:30 PMN/ASunny.6 mphN/A29.74 "Hg10 mi
3:00 PM108 °FSunny.6 mph8%29.77 "Hg10 mi
2:30 PMN/ASunny.No windN/A29.77 "Hg10 mi
2:00 PM106 °FSunny.6 mph7%29.77 "Hg10 mi
1:30 PMN/ASunny.6 mphN/A29.80 "Hg10 mi
1:00 PM104 °FSunny.3 mph6%29.80 "Hg10 mi
12:30 PMN/ASunny.No windN/A29.83 "Hg10 mi
12:00 PM104 °FSunny.12 mph6%29.83 "Hg10 mi
11:30 AMN/ASunny.12 mphN/A29.83 "Hg10 mi
11:00 AM100 °FSunny.12 mph5%29.83 "Hg10 mi
9:00 AM91 °FSunny.5 mph10%29.86 "Hg10 mi
8:30 AMN/ASunny.9 mphN/A29.86 "Hg10 mi
8:00 AM88 °FSunny.6 mph11%29.86 "Hg10 mi
7:30 AMN/ASunny.5 mphN/A29.83 "Hg10 mi
7:00 AM84 °FSunny.5 mph14%29.86 "Hg10 mi
6:30 AMN/ASunny.7 mphN/A29.83 "Hg10 mi
6:00 AM86 °FClear.6 mph9%29.83 "Hg10 mi
5:30 AMN/AClear.5 mphN/A29.83 "Hg10 mi
5:00 AM86 °FClear.3 mph9%29.80 "Hg10 mi
4:30 AMN/AClear.7 mphN/A29.80 "Hg10 mi
4:00 AM88 °FClear.5 mph11%29.80 "Hg10 mi
Weather by CustomWeather, © 2015

See weather overviewHow to use our weather pages